Weather in Kalgalaksha

Russia / Republic of Karelia     65°45′49″N   34°40′11″E
temp.,
°C
wind,
m/s
gust,
m/s
humid.,
%
clouds,
%
prec.,
mm/h
press.,
hPa
HPBL,
m
27 february, sat
sat2700:00−2nnw3495100 0.0 1002113
03:00−3nnw359697 0.0 1005121
06:00−6nnw4594100 0.0 100685
09:00−4nnw599096 0.0 1010183
12:00−3nw579021 0.0 1011138
15:00−2nw469011 0.0 1013109
18:00−5wnw34930 0.0 101234
21:00−7wnw33930 0.0 101326
28 february, sun
sun2800:00−8w339225 0.0 101124
03:00−8wsw238961 0.0 101021
06:00−7wsw3387100 0.0 100934
09:00−7sw348799 0.0 100937
12:00−3sw359499 0.0 1009269
15:00−2w469399 0.1 1010408
18:00−1wnw3694100 0.0 1009188
21:00−4w349475 0.0 101044
1 march, mon
mon100:00−4wsw459282 0.0 100970
03:00−2wsw5109291 0.0 1007183
06:00+1wsw8139797 0.0 1003363
09:00+2w7149298 0.0 1001467
12:00+2w6139484 0.0 1000374
15:00+2w6128962 0.0 1000381
18:00−1w6108011 0.0 999189
21:00−2w611875 0.0 998184
2 march, tue
tue200:00−2w6118767 0.0 997228
03:00−3w698550 0.0 996168
06:00−3wnw5109086 0.0 997175
09:00−3nw8167775 0.0 1000516
12:00−3nw8147858 0.0 1004542
15:00−3nw6118059 0.0 1007321
18:00−4wnw58870 0.0 1007151
21:00−3nw6138341 0.0 1008287
3 march, wed
wed300:00−5nw69820 0.0 1010146
03:00−7nw57870 0.0 1012104
06:00−8wnw57890 0.0 101298
09:00−9wnw56890 0.0 101295
12:00−6w46860 0.0 1011126
15:00−4wsw58900 0.0 1008172
18:00−4sw598961 0.0 1003173
21:00−2ssw5109780 1.3 996393